Location: Burzi?i
(45.0869°N, 16.0577°E)
Time: 11:08:46
(UTC+00:00)

SeaSat 1 - Pass Details

Date: 29 October 2020
Orbit: 744 x 747 km, 108.0° (Epoch: 28 November)

Event Time Altitude Azimuth Distance (km) Brightness Sun altitude
Exits shadow 18:00:37 46° 31° (NNE) 1,001 2.8 -24.0°
Drops below altitude 10° 18:04:43 10° 342° (NNW) 2,273 5.2 -24.7°
Sets 18:07:03 0° 338° (NNW) 3,202 6.1 -25.1°
